057  
ASUS44 KEWX 181810  
RWREWX  
SOUTH TEXAS REGIONAL WEATHER ROUNDUP  
NATIONAL WEATHER SERVICE AUSTIN/SAN ANTONIO TX  
100 PM CDT FRI AUG 18 2017  
 
NOTE: "FAIR" INDICATED FEW OR NO CLOUDS BELOW 12,000 FEET WITH NO  
SIGNIFICANT WEATHER AND/OR S TO VISIBILITY
.  
 
* - THESE STATIONS ARE NOT NWS OR FAA STATIONS...AND ARE NOT SUBJECT  
TO NWS AND FAA QUALITY CONTROL.
 
 
TXZ171-172-183>190-181900-  
TEXAS HILL COUNTRY AND EDWARDS PLATEAU  
 
CITY SKY/WX TMP DP RH WIND PRES REMARKS
 
JUNCTION PTSUNNY 85 72 65 S5G17 30.09F HX 91  
6HR MIN TEMP: 75; 6HR MAX TEMP: 87;  
 
*LLANO SUNNY 91 70 49 SW6 30.09F HX 97  
BURNET SUNNY 89 69 51 W7G16 30.09F HX 93  
6HR MIN TEMP: 75; 6HR MAX TEMP: 90;  
 
*HORSESHOE BAY SUNNY 93 69 45 SW6 30.06F HX 97  
6HR MIN TEMP: 74; 6HR MAX TEMP: 93;  
 
*KERRVILLE PTSUNNY 88 75 64 SW9 30.09F HX 97  
6HR MIN TEMP: 74; 6HR MAX TEMP: 88;  
 
*FREDERICKSBRG MOSUNNY 87 69 55 SW8 30.09F HX 91  
6HR MIN TEMP: 73; 6HR MAX TEMP: 87;  
 
*ROCKSPRINGS NOT AVBL  
*BOERNE STAGE SUNNY N/A N/A N/A S3 30.08F  
*CASTROVILLE MOSUNNY 92 68 45 SW10 30.05F HX 96  
HONDO MOSUNNY 93 72 50 VRB6 30.04F HX 101  
6HR MIN TEMP: 77; 6HR MAX TEMP: 93;  
 
*UVALDE MOSUNNY 91 71 51 CALM 30.04F HX 98  
6HR MIN TEMP: 75; 6HR MAX TEMP: 91;  
 
DEL RIO MOSUNNY 90 73 57 VRB5 30.00F HX 98  
6HR MIN TEMP: 78; 6HR MAX TEMP: 91;  
 
LAUGHLIN AFB PTSUNNY 90 74 58 SE9 30.01F HX 98  
6HR MIN TEMP: 77; 6HR MAX TEMP: 90;  
 
CARRIZO SPRGS SUNNY 95 70 43 CALM 29.99F HX 101  
*EAGLE PASS NOT AVBL  

 
 
TXZ173-191>194-202-209-217>225-228-181900-  
CENTRAL AND SOUTH CENTRAL TEXAS  
 
CITY SKY/WX TMP DP RH WIND PRES REMARKS
 
GEORGETOWN SUNNY 92 69 47 SW12 30.06F HX 97  
6HR MIN TEMP: 77; 6HR MAX TEMP: 92;  
 
AUSTIN/BERGSTM MOSUNNY 94 71 47 S10G17 30.02F HX 101  
6HR MIN TEMP: 77; 6HR MAX TEMP: 94;  
 
AUSTIN/MABRY SUNNY 96 70 42 S6 30.04F HX 102  
6HR MIN TEMP: 78; 6HR MAX TEMP: 96;  
 
*AUSTIN/EXEC SUNNY 91 70 49 SW10 30.04F HX 97  
*LAGO VISTA SUNNY 92 67 44 W7 30.07F HX 95  
6HR MIN TEMP: 76; 6HR MAX TEMP: 92;  
 
SAN MARCOS SUNNY 94 72 48 SW12G18 30.04F HX 102  
6HR MIN TEMP: 77; 6HR MAX TEMP: 94;  
 
NEW BRAUNFELS MOSUNNY 94 70 45 SW10G17 30.02F HX 100  
6HR MIN TEMP: 77; 6HR MAX TEMP: 95;  
 
RANDOLPH AFB SUNNY 92 70 48 S5 30.04F HX 97  
6HR MIN TEMP: 78; 6HR MAX TEMP: 92;  
 
PT SAN ANTONIO MOSUNNY 91 73 54 CALM 30.02F HX 100  
6HR MIN TEMP: 76; 6HR MAX TEMP: 92; 6HR PCP: TRACE;  
 
SAN ANTONIO NOT AVBL  
STINSON FIELD SUNNY 93 72 50 VRB3 30.01F HX 101  
6HR MIN TEMP: 78; 6HR MAX TEMP: 93;  
 
*LA GRANGE SUNNY 97 71 42 SW6 30.00F HX 104  
6HR MIN TEMP: 79; 6HR MAX TEMP: 97;  
 
*GIDDINGS SUNNY 92 67 43 S9 30.04F HX 95  
6HR MIN TEMP: 77; 6HR MAX TEMP: 92;  
 
*GONZALES SUNNY 96 72 45 S8 30.02F HX 104  
6HR MIN TEMP: 79; 6HR MAX TEMP: 96;  
 

 
 
TXZ163>164-176>182-195>201-210>213-226-227-235-181900-  
SOUTHEAST TEXAS  
 
CITY SKY/WX TMP DP RH WIND PRES REMARKS
 
COLLEGE STN MOSUNNY 92 73 53 SW5 30.03F HX 100  
6HR MIN TEMP: 77; 6HR MAX TEMP: 93;  
 
*BRYAN MOSUNNY 92 71 51 S7 30.05F HX 98  
6HR MIN TEMP: 76; 6HR MAX TEMP: 93;  
 
*CALDWELL NOT AVBL  
*CROCKETT MOSUNNY 93 73 52 SW8 30.07F HX 102  
*BRENHAM MOSUNNY 95 70 44 S9 30.03F HX 101  
6HR MIN TEMP: 77; 6HR MAX TEMP: 95;  
 
HUNTSVILLE PTSUNNY 93 70 46 NW7 30.05F HX 99  
6HR MIN TEMP: 78; 6HR MAX TEMP: 93;  
 
CONROE SUNNY 93 72 50 SW8 30.04F HX 101  
6HR MIN TEMP: 73; 6HR MAX TEMP: 93;  
 
HOUSTON BUSH MOSUNNY 94 75 54 SW8 30.03F HX 105  
6HR MIN TEMP: 78; 6HR MAX TEMP: 94;  
 
HOUSTON HOBBY MOSUNNY 95 73 48 S7 30.02F HX 104  
6HR MIN TEMP: 80; 6HR MAX TEMP: 96;  
 
*HOUSTON SW AP PTSUNNY 92 76 58 CALM 30.03F HX 104  
6HR MIN TEMP: 74; 6HR MAX TEMP: 92;  
 
PEARLAND MOSUNNY 96 72 45 SW6 30.04F HX 104  
6HR MIN TEMP: 80; 6HR MAX TEMP: 96;  
 
HOUSTON HOOKS PTSUNNY 91 76 61 VRB6 30.03F HX 103  
6HR MIN TEMP: 77; 6HR MAX TEMP: 93;  
 
ELLINGTON FLD NOT AVBL  
SUGAR LAND SUNNY 94 72 48 SW5 30.02F HX 102  
6HR MIN TEMP: 77; 6HR MAX TEMP: 95;  
 
*HOUSTON EXEC MOSUNNY 93 75 55 SW3 30.05F HX 104  
*CLEVELAND MUN MOSUNNY 90 76 63 W5 30.05F HX 102  
6HR MIN TEMP: 74; 6HR MAX TEMP: 93;  
 
*WHARTON MOSUNNY 92 68 44 CALM 30.03F HX 96  
6HR MIN TEMP: 75; 6HR MAX TEMP: 92;  
 
*COLUMBUS PTSUNNY 92 70 47 W8 30.04F HX 98  
6HR MIN TEMP: 74; 6HR MAX TEMP: 92;  
 
*EAGLE LAKE CLEAR 95 72 47 SW10 30.02F HX 103  
6HR MIN TEMP: 77; 6HR MAX TEMP: 95;  
 

 
 
TXZ214>216-236>238-181900-  
THE UPPER TEXAS COAST  
 
CITY SKY/WX TMP DP RH WIND PRES REMARKS
 
*ORANGE MOSUNNY 91 74 57 SW3 30.05F HX 101  
6HR MIN TEMP: 77; 6HR MAX TEMP: 92;  
 
PORT ARTHUR MOSUNNY 92 75 57 W8 30.03F HX 103  
6HR MIN TEMP: 76; 6HR MAX TEMP: 94;  
 
GALVESTON MOSUNNY 90 79 70 S9 30.04F HX 106  
6HR MIN TEMP: 84; 6HR MAX TEMP: 91;  
 
ANGLETON MOSUNNY 92 75 57 SW6 30.03F HX 103  
6HR MIN TEMP: 77; 6HR MAX TEMP: 94;  
 
*BAY CITY MOSUNNY 93 73 51 S6 30.03F HX 102  
PALACIOS SUNNY 89 77 67 S8 30.03F HX 101  
6HR MIN TEMP: 82; 6HR MAX TEMP: 90;  
 

 
 
TXZ229>234-239>247-181900-  
TEXAS COASTAL BEND AND RIO GRANDE PLAINS  
 
CITY SKY/WX TMP DP RH WIND PRES REMARKS
 
VICTORIA NOT AVBL  
*BEEVILLE PTSUNNY 95 71 45 SE6 30.01F HX 102  
ROCKPORT N/A 93 75 55 S9 30.01F HX 104  
6HR MIN TEMP: 82; 6HR MAX TEMP: 94;  
 
*PORT ARANSAS SUNNY 88 78 72 SE8 30.01F HX 101  
6HR MIN TEMP: 81; 6HR MAX TEMP: 88;  
 
*PORT LAVACA MOSUNNY 92 71 49 SW6 30.02F HX 99  
6HR MIN TEMP: 77; 6HR MAX TEMP: 93;  
 
*INGLESIDE SUNNY 94 76 55 MISG 30.00F HX 106  
CORPUS CHRISTI NOT AVBL  
CORPUS NAS MOSUNNY 94 78 60 SE17 30.01F HX 110  
6HR MIN TEMP: 83; 6HR MAX TEMP: 94;  
 
*ROBSTOWN MOSUNNY 98 68 37 S10 29.99F HX 103  
6HR MIN TEMP: 80; 6HR MAX TEMP: 98;  
 
ALICE MOSUNNY 98 68 37 S10 29.98F HX 103  
6HR MIN TEMP: 75; 6HR MAX TEMP: 98;  
 
KINGSVILLE NAS MOSUNNY 96 73 47 SW5 29.98F HX 105  
6HR MIN TEMP: 77; 6HR MAX TEMP: 98;  
 
COTULLA SUNNY 96 68 39 S8 29.99F HX 101  
6HR MIN TEMP: 79; 6HR MAX TEMP: 96;  
 
*FAITH RANCH SUNNY 95 70 43 SW7 29.99F HX 101  
LAREDO SUNNY 98 71 41 SE12G17 29.98F HX 106  
6HR MIN TEMP: 80; 6HR MAX TEMP: 98;  
 

 
 
TXZ248>255-181900-  
DEEP SOUTH TEXAS  
 
CITY SKY/WX TMP DP RH WIND PRES REMARKS
 
BROWNSVILLE PTSUNNY 91 75 59 E7 29.99F HX 101  
6HR MIN TEMP: 79; 6HR MAX TEMP: 93;  
 
PORT ISABEL SUNNY 94 78 60 E17 29.99F HX 110  
6HR MIN TEMP: 80; 6HR MAX TEMP: 96;  
 
*SOUTH PADRE NOT AVBL  
HARLINGEN SUNNY 95 71 45 S7G17 29.98F HX 102  
6HR MIN TEMP: 78; 6HR MAX TEMP: 96;  
 
*HEBBRONV  
 
CLICK HERE TO GO TO PREVIOUS BULLETINS.

The Nexlab TX Page Main Text Page